^^
Station Historical Data
Daily Summary for October 25, 2021 Units:  English    Metric   Both
Daily Weekly Monthly Yearly
  High: Low: Average:
Temperature: 51.1 °F 49.3 °F 50.4 °F
Dew Point: 44.8 °F 41.7 °F 43.2 °F
Humidity: 84% 72% 76%
Wind Speed: 6mph 3mph 4.6mph
Wind Gust: 12mph - -
Wind- - East
Pressure: 29.97 in 29.86 in -
Precipitation: 0.01 in    
 
 
Tabular Data for October 25, 2021
Time Temperature Dew Point Pressure Wind Wind Speed Wind Gust Humidity Rainfall Rate (Hourly) solar
00:00 49.8 °F 43.2 °F 29.97 in East 3 mph 3 mph 78% 0.00 in 0 W/m2
00:05 49.8 °F 42.9 °F 29.96 in ESE 3 mph 5 mph 77% 0.00 in 0 W/m2
00:10 49.8 °F 42.9 °F 29.95 in ENE 3 mph 4 mph 77% 0.00 in 0 W/m2
00:20 49.9 °F 42.6 °F 29.94 in NNE 4 mph 6 mph 76% 0.00 in 0 W/m2
00:25 49.9 °F 42.3 °F 29.94 in ENE 4 mph 6 mph 75% 0.00 in 0 W/m2
00:30 50 °F 42.4 °F 29.93 in NE 4 mph 4 mph 75% 0.00 in 0 W/m2
00:35 50 °F 42.4 °F 29.93 in ENE 4 mph 5 mph 75% 0.00 in 0 W/m2
00:40 50.1 °F 42.5 °F 29.94 in NE 4 mph 5 mph 75% 0.00 in 0 W/m2
00:45 50.1 °F 42.1 °F 29.94 in ESE 4 mph 5 mph 74% 0.00 in 0 W/m2
00:50 50.2 °F 42.2 °F 29.94 in East 5 mph 5 mph 74% 0.00 in 0 W/m2
00:55 50.3 °F 42 °F 29.94 in East 5 mph 5 mph 73% 0.00 in 0 W/m2
01:00 50.4 °F 42.1 °F 29.94 in NE 5 mph 5 mph 73% 0.00 in 0 W/m2
01:05 50.4 °F 41.7 °F 29.95 in NE 5 mph 5 mph 72% 0.00 in 0 W/m2
01:10 50.5 °F 41.8 °F 29.94 in ENE 5 mph 5 mph 72% 0.00 in 0 W/m2
01:15 50.5 °F 41.8 °F 29.94 in NE 4 mph 5 mph 72% 0.00 in 0 W/m2
01:20 50.5 °F 41.8 °F 29.93 in East 4 mph 4 mph 72% 0.00 in 0 W/m2
01:25 50.5 °F 41.8 °F 29.94 in East 4 mph 4 mph 72% 0.00 in 0 W/m2
01:30 50.5 °F 42.2 °F 29.93 in NE 3 mph 3 mph 73% 0.00 in 0 W/m2
01:35 50.5 °F 42.2 °F 29.93 in ENE 3 mph 3 mph 73% 0.00 in 0 W/m2
01:40 50.5 °F 42.2 °F 29.93 in North 3 mph 3 mph 73% 0.00 in 0 W/m2
01:45 50.5 °F 42.2 °F 29.93 in NNE 4 mph 4 mph 73% 0.00 in 0 W/m2
01:50 50.4 °F 42.1 °F 29.92 in ESE 4 mph 4 mph 73% 0.00 in 0 W/m2
01:55 50.4 °F 42.4 °F 29.92 in NE 3 mph 5 mph 74% 0.00 in 0 W/m2
02:00 50.4 °F 42.4 °F 29.92 in NE 4 mph 4 mph 74% 0.00 in 0 W/m2
02:05 50.3 °F 42 °F 29.91 in East 3 mph 4 mph 73% 0.00 in 0 W/m2
02:10 50.3 °F 42 °F 29.91 in NNE 3 mph 4 mph 73% 0.00 in 0 W/m2
02:15 50.3 °F 42 °F 29.91 in East 3 mph 5 mph 73% 0.00 in 0 W/m2
02:20 50.3 °F 42 °F 29.91 in NE 3 mph 4 mph 73% 0.00 in 0 W/m2
02:25 50.3 °F 42.3 °F 29.92 in ENE 3 mph 4 mph 74% 0.00 in 0 W/m2
02:30 50.3 °F 42 °F 29.92 in ENE 4 mph 5 mph 73% 0.00 in 0 W/m2
02:35 50.3 °F 42.3 °F 29.92 in SE 3 mph 7 mph 74% 0.00 in 0 W/m2
02:40 50.3 °F 42.3 °F 29.92 in East 3 mph 5 mph 74% 0.00 in 0 W/m2
02:45 50.4 °F 42.1 °F 29.92 in ENE 4 mph 7 mph 73% 0.00 in 0 W/m2
02:50 50.6 °F 42.6 °F 29.92 in East 4 mph 5 mph 74% 0.00 in 0 W/m2
02:55 50.7 °F 42.4 °F 29.92 in NE 3 mph 5 mph 73% 0.00 in 0 W/m2
03:00 50.7 °F 42.7 °F 29.92 in NE 4 mph 4 mph 74% 0.00 in 0 W/m2
03:05 50.8 °F 42.5 °F 29.92 in East 4 mph 4 mph 73% 0.00 in 0 W/m2
03:10 50.9 °F 42.9 °F 29.93 in SE 4 mph 4 mph 74% 0.00 in 0 W/m2
03:15 50.9 °F 42.6 °F 29.93 in East 4 mph 7 mph 73% 0.00 in 0 W/m2
03:20 50.9 °F 42.6 °F 29.92 in NNE 4 mph 4 mph 73% 0.00 in 0 W/m2
03:25 51 °F 42.6 °F 29.92 in East 4 mph 5 mph 73% 0.00 in 0 W/m2
03:30 51 °F 42.6 °F 29.92 in ENE 4 mph 7 mph 73% 0.00 in 0 W/m2
03:35 51.1 °F 43.1 °F 29.92 in East 4 mph 7 mph 74% 0.00 in 0 W/m2
03:40 51.1 °F 43.1 °F 29.91 in ENE 4 mph 4 mph 74% 0.00 in 0 W/m2
03:45 51 °F 43 °F 29.91 in East 3 mph 4 mph 74% 0.00 in 0 W/m2
03:50 51 °F 43 °F 29.90 in ENE 4 mph 6 mph 74% 0.00 in 0 W/m2
03:55 51 °F 43 °F 29.89 in ESE 5 mph 6 mph 74% 0.00 in 0 W/m2
04:00 51 °F 43 °F 29.89 in East 5 mph 5 mph 74% 0.00 in 0 W/m2
04:05 51 °F 43.4 °F 29.88 in ENE 4 mph 5 mph 75% 0.00 in 0 W/m2
04:10 51 °F 43.4 °F 29.88 in East 5 mph 8 mph 75% 0.00 in 0 W/m2
04:15 51 °F 43.4 °F 29.88 in ENE 4 mph 8 mph 75% 0.00 in 0 W/m2
04:20 50.9 °F 42.9 °F 29.88 in NNE 4 mph 4 mph 74% 0.00 in 0 W/m2
04:25 50.9 °F 42.9 °F 29.88 in NNE 4 mph 4 mph 74% 0.00 in 0 W/m2
04:30 50.9 °F 42.9 °F 29.88 in NNE 4 mph 4 mph 74% 0.00 in 0 W/m2
04:35 50.9 °F 42.9 °F 29.89 in NE 5 mph 5 mph 74% 0.00 in 0 W/m2
04:40 51 °F 43.4 °F 29.88 in ENE 5 mph 5 mph 75% 0.00 in 0 W/m2
04:45 50.9 °F 43.3 °F 29.88 in SSE 4 mph 5 mph 75% 0.00 in 0 W/m2
04:50 51 °F 43.4 °F 29.88 in ESE 4 mph 4 mph 75% 0.00 in 0 W/m2
04:55 51.1 °F 43.4 °F 29.87 in East 4 mph 4 mph 75% 0.00 in 0 W/m2
05:00 51.1 °F 43.4 °F 29.87 in SSE 5 mph 5 mph 75% 0.00 in 0 W/m2
05:05 51 °F 43 °F 29.88 in NE 5 mph 5 mph 74% 0.00 in 0 W/m2
05:10 51 °F 43 °F 29.88 in ENE 5 mph 5 mph 74% 0.00 in 0 W/m2
05:15 51.1 °F 43.1 °F 29.87 in East 5 mph 7 mph 74% 0.00 in 0 W/m2
05:25 51 °F 43 °F 29.86 in East 5 mph 7 mph 74% 0.00 in 0 W/m2
05:30 51 °F 43 °F 29.86 in East 5 mph 7 mph 74% 0.00 in 0 W/m2
05:35 51 °F 43.4 °F 29.86 in East 5 mph 5 mph 75% 0.00 in 0 W/m2
05:40 51 °F 43.4 °F 29.86 in ENE 5 mph 5 mph 75% 0.00 in 0 W/m2
05:45 50.9 °F 43.3 °F 29.86 in East 5 mph 5 mph 75% 0.00 in 0 W/m2
05:50 50.9 °F 43.3 °F 29.86 in ENE 5 mph 6 mph 75% 0.00 in 0 W/m2
05:55 50.9 °F 43.3 °F 29.86 in NE 5 mph 6 mph 75% 0.00 in 0 W/m2
06:00 50.7 °F 43.4 °F 29.87 in East 5 mph 5 mph 76% 0.00 in 0 W/m2
06:05 50.7 °F 43.4 °F 29.87 in West 5 mph 5 mph 76% 0.00 in 0 W/m2
06:10 50.7 °F 43.4 °F 29.87 in NE 5 mph 5 mph 76% 0.00 in 0 W/m2
06:15 50.7 °F 43.8 °F 29.87 in East 5 mph 5 mph 77% 0.00 in 0 W/m2
06:20 50.6 °F 43.7 °F 29.87 in ENE 5 mph 5 mph 77% 0.00 in 0 W/m2
06:25 50.6 °F 43.3 °F 29.88 in SE 5 mph 5 mph 76% 0.00 in 0 W/m2
06:30 50.6 °F 43.3 °F 29.87 in ENE 6 mph 6 mph 76% 0.00 in 0 W/m2
06:35 50.6 °F 43.7 °F 29.87 in ENE 6 mph 6 mph 77% 0.00 in 0 W/m2
06:40 50.6 °F 43.7 °F 29.87 in East 5 mph 5 mph 77% 0.00 in 0 W/m2
06:50 50.4 °F 43.5 °F 29.87 in NNW 5 mph 5 mph 77% 0.00 in 0 W/m2
06:55 50.4 °F 43.5 °F 29.86 in NE 6 mph 6 mph 77% 0.00 in 0 W/m2
07:00 50.4 °F 43.5 °F 29.86 in East 5 mph 5 mph 77% 0.00 in 0 W/m2
07:05 50.3 °F 43 °F 29.86 in East 5 mph 5 mph 76% 0.00 in 0 W/m2
07:10 50.3 °F 43.4 °F 29.87 in East 5 mph 5 mph 77% 0.00 in 0 W/m2
07:15 50.4 °F 43.5 °F 29.87 in East 5 mph 5 mph 77% 0.00 in 0 W/m2
07:20 50.4 °F 43.5 °F 29.87 in South 5 mph 5 mph 77% 0.00 in 0 W/m2
07:25 50.4 °F 43.5 °F 29.87 in ESE 4 mph 7 mph 77% 0.00 in 0 W/m2
07:30 50.4 °F 43.8 °F 29.87 in ESE 5 mph 6 mph 78% 0.00 in 0 W/m2
07:35 50.4 °F 43.8 °F 29.87 in ENE 6 mph 6 mph 78% 0.00 in 0 W/m2
07:40 50.5 °F 44.2 °F 29.87 in East 6 mph 6 mph 79% 0.00 in 0 W/m2
07:45 50.5 °F 44.2 °F 29.88 in WSW 5 mph 6 mph 79% 0.00 in 0 W/m2
07:50 50.4 °F 44.1 °F 29.88 in East 5 mph 5 mph 79% 0.00 in 0 W/m2
07:55 50.3 °F 44 °F 29.88 in East 5 mph 5 mph 79% 0.00 in 0 W/m2
08:00 50.1 °F 44.2 °F 29.88 in SE 5 mph 5 mph 80% 0.00 in 0 W/m2
08:05 50 °F 44.1 °F 29.88 in NE 5 mph 5 mph 80% 0.00 in 0 W/m2
08:15 49.7 °F 44.1 °F 29.89 in ENE 6 mph 6 mph 81% 0.00 in 0 W/m2
08:20 49.6 °F 44 °F 29.89 in East 6 mph 7 mph 81% 0.00 in 0 W/m2
08:25 49.5 °F 44.2 °F 29.88 in ENE 5 mph 9 mph 82% 0.00 in 5 W/m2
08:30 49.4 °F 44.5 °F 29.89 in East 5 mph 9 mph 83% 0.00 in 5 W/m2
08:35 49.3 °F 44.4 °F 29.89 in NE 5 mph 5 mph 83% 0.00 in 7 W/m2
08:40 49.3 °F 44.4 °F 29.88 in NE 5 mph 5 mph 83% 0.00 in 9 W/m2
08:45 49.4 °F 44.8 °F 29.89 in NE 5 mph 9 mph 84% 0.00 in 11 W/m2
08:50 49.4 °F 44.8 °F 29.89 in East 5 mph 9 mph 84% 0.00 in 12 W/m2
08:55 49.3 °F 44.4 °F 29.88 in East 6 mph 8 mph 83% 0.00 in 14 W/m2
09:00 49.3 °F 44.4 °F 29.88 in ENE 6 mph 10 mph 83% 0.00 in 16 W/m2
09:05 49.3 °F 44.4 °F 29.88 in SE 5 mph 10 mph 83% 0.00 in 14 W/m2
09:10 49.4 °F 44.5 °F 29.88 in ENE 5 mph 7 mph 83% 0.00 in 18 W/m2
09:15 49.3 °F 44 °F 29.88 in East 5 mph 7 mph 82% 0.00 in 19 W/m2
09:20 49.4 °F 44.1 °F 29.88 in East 5 mph 9 mph 82% 0.00 in 21 W/m2
09:25 49.6 °F 44.6 °F 29.87 in ENE 5 mph 9 mph 83% 0.00 in 23 W/m2
09:30 49.6 °F 44.6 °F 29.87 in East 5 mph 11 mph 83% 0.00 in 19 W/m2
09:35 49.6 °F 44.3 °F 29.87 in East 6 mph 11 mph 82% 0.00 in 21 W/m2
09:40 49.6 °F 44 °F 29.87 in East 6 mph 6 mph 81% 0.00 in 35 W/m2
09:45 49.6 °F 44 °F 29.87 in ESE 6 mph 6 mph 81% 0.00 in 30 W/m2
09:50 49.5 °F 43.6 °F 29.86 in ENE 6 mph 12 mph 80% 0.00 in 39 W/m2
09:55 49.5 °F 43.9 °F 29.86 in NE 6 mph 12 mph 81% 0.00 in 39 W/m2
10:00 49.5 °F 43.9 °F 29.86 in East 6 mph 6 mph 81% 0.00 in 47 W/m2
10:05 49.5 °F 43.9 °F 29.86 in ENE 6 mph 7 mph 81% 0.00 in 46 W/m2
Sand Point, Michigan, USA
Compliments of Weather Underground - 2 mb